SOYUZ-MS 04

Last updated on Sun Sep 03 2017 00:15:08 GMT+0000 (Coordinated Universal Time)

1 42682U 17020A 17243.54315697 .00001542 00000-0 30671-4 0 9992 2 42682 51.6433 22.6692 0004663 206.7900 253.6081 15.54012894 20721
UTC large
Height (km)
Speed (km/s)
/
Latitude / Longitude
Inclination (degrees)
Orbital Period (minutes)
Azimuth
Elevation
Range (km)
Doppler Factor

Next 0 passes for location: London (51.5072 / 0.1276)

Sorry there are no passes over London.
SOYUZ-MS 04